FW7281 Weather Reports


time (UTC)temp
C
wind
direction
speed
KPH
gust
KPH
rain 1hr
cm
rain 24hr
cm
rain mn
cm
humidity
%
barometer
mb
20260509000545 15 324 0.0 0.0 0.00 0.00 0.00 73 1012.6
20260509000101 15 324 0.0 0.0 0.00 0.00 0.00 73 1012.6
20260508235545 15 324 0.0 0.0 0.00 0.00 0.00 73 1012.5
20260508235045 15 324 0.0 0.0 0.00 0.00 0.00 72 1012.5
20260508234545 15 324 0.0 0.0 0.00 0.00 0.00 70 1012.4
20260508234044 15 323 0.0 0.0 0.00 0.00 0.00 70 1012.5
20260508233544 15 323 0.0 1.6 0.00 0.00 0.00 70 1012.6
20260508233044 15 139 0.0 1.6 0.00 0.00 0.00 71 1012.5
20260508232543 16 139 0.0 0.0 0.00 0.00 0.00 71 1012.4
20260508232043 16 210 0.0 0.0 0.00 0.00 0.00 70 1012.4
20260508231549 16 210 0.0 0.0 0.00 0.00 0.00 70 1012.4
20260508231043 16 210 0.0 0.0 0.00 0.00 0.00 68 1012.3
20260508230542 16 210 0.0 0.0 0.00 0.00 0.00 69 1012.3
20260508230043 16 210 0.0 1.6 0.00 0.00 0.00 66 1012.3
20260508225543 16 210 0.0 1.6 0.00 0.00 0.00 66 1012.2
20260508225045 16 210 0.0 1.6 0.00 0.00 0.00 67 1012.1
20260508224542 16 129 0.0 1.6 0.00 0.00 0.00 64 1012.3
20260508224042 16 333 0.0 1.6 0.00 0.00 0.00 65 1012.3
20260508223542 16 333 0.0 0.0 0.00 0.00 0.00 67 1012.3
20260508223042 16 333 0.0 0.0 0.00 0.00 0.00 64 1012.4
20260508222541 17 333 0.0 1.6 0.00 0.00 0.00 64 1012.4
20260508222041 17 340 0.0 1.6 0.00 0.00 0.00 65 1012.2
20260508221541 17 333 0.0 0.0 0.00 0.00 0.00 63 1012.2
20260508221042 17 333 0.0 1.6 0.00 0.00 0.00 62 1012.1
20260508220542 17 332 0.0 1.6 0.00 0.00 0.00 61 1012.2
20260508220043 17 89 0.0 0.0 0.00 0.00 0.00 64 1012.0
20260508215541 17 6 0.0 0.0 0.00 0.00 0.00 63 1012.2
20260508215040 17 6 0.0 1.6 0.00 0.00 0.00 62 1012.1
20260508214540 18 303 0.0 1.6 0.00 0.00 0.00 59 1012.2
20260508214039 17 286 0.0 0.0 0.00 0.00 0.00 61 1012.3
20260508213539 17 304 0.0 0.0 0.00 0.00 0.00 62 1012.3
20260508213047 18 304 0.0 0.0 0.00 0.00 0.00 61 1012.0
20260508212540 18 304 0.0 0.0 0.00 0.00 0.00 60 1011.9
20260508212039 17 304 0.0 0.0 0.00 0.00 0.00 60 1011.8
20260508211538 17 304 0.0 0.0 0.00 0.00 0.00 62 1011.8
20260508211038 18 304 0.0 1.6 0.00 0.00 0.00 62 1011.9
20260508210538 18 302 0.0 1.6 0.00 0.00 0.00 63 1011.9
20260508210038 17 290 0.0 1.6 0.00 0.00 0.00 63 1012.0
20260508205536 17 281 0.0 0.0 0.00 0.00 0.00 64 1012.1
20260508205037 17 281 0.0 0.0 0.00 0.00 0.00 62 1012.1
20260508204536 17 281 0.0 0.0 0.00 0.00 0.00 59 1012.2
20260508204035 17 282 0.0 0.0 0.00 0.00 0.00 59 1012.2
20260508203535 17 282 0.0 1.6 0.00 0.00 0.00 57 1012.2
20260508203043 17 127 0.0 1.6 0.00 0.00 0.00 60 1012.3
20260508202535 18 131 0.0 1.6 0.00 0.00 0.00 59 1012.3
20260508202034 18 129 0.0 1.6 0.00 0.00 0.00 59 1012.2
20260508201541 18 302 0.0 0.0 0.00 0.00 0.00 61 1012.3
20260508201034 17 302 0.0 1.6 0.00 0.00 0.00 60 1012.4
20260508200534 17 303 0.0 1.6 0.00 0.00 0.00 57 1012.5
20260508200040 17 302 0.0 1.6 0.00 0.00 0.00 59 1012.7
20260508195533 17 326 0.0 0.0 0.00 0.00 0.00 59 1012.7
20260508195033 17 326 0.0 1.6 0.00 0.00 0.00 60 1012.8
20260508194534 17 326 0.0 1.6 0.00 0.00 0.00 62 1012.9
20260508194032 17 55 0.0 0.0 0.00 0.00 0.00 61 1012.9
20260508193532 17 56 0.0 0.0 0.00 0.00 0.00 59 1013.0
20260508193032 17 106 0.0 0.0 0.00 0.00 0.00 60 1013.2
20260508192533 18 94 0.0 0.0 0.00 0.00 0.00 56 1013.3
20260508192033 18 344 0.0 0.0 0.00 0.00 0.00 57 1013.4
20260508191533 18 113 0.0 0.0 0.00 0.00 0.00 57 1013.2
20260508191036 18 68 0.0 1.6 0.00 0.00 0.00 57 1013.3
20260508190534 18 116 0.0 1.6 0.00 0.00 0.00 57 1013.5
20260508190040 17 255 0.0 1.6 0.00 0.00 0.00 58 1013.6
20260508185531 18 255 0.0 1.6 0.00 0.00 0.00 56 1013.7
20260508185032 18 133 0.0 1.6 0.00 0.00 0.00 54 1013.7
20260508184531 18 323 0.0 1.6 0.00 0.00 0.00 53 1013.7
20260508184029 18 259 0.0 1.6 0.00 0.00 0.00 54 1013.8
20260508183532 18 268 0.0 1.6 0.00 0.00 0.00 52 1013.8
20260508183035 18 314 0.0 0.0 0.00 0.00 0.00 56 1013.7
20260508182529 18 314 0.0 1.6 0.00 0.00 0.00 53 1014.0
20260508182030 18 275 0.0 3.2 0.00 0.00 0.00 51 1013.9
20260508181543 18 292 0.0 3.2 0.00 0.00 0.00 54 1014.0
20260508181027 18 138 0.0 1.6 0.00 0.00 0.00 48 1014.0
20260508180527 17 126 0.0 1.6 0.00 0.00 0.00 48 1013.9
20260508180026 17 257 0.0 1.6 0.00 0.00 0.00 48 1014.2
20260508175526 17 285 0.0 1.6 0.00 0.00 0.00 49 1014.2
20260508175025 17 284 0.0 1.6 0.00 0.00 0.00 48 1014.4
20260508174529 17 245 0.0 1.6 0.00 0.00 0.00 46 1014.6
20260508174028 17 155 0.0 0.0 0.00 0.00 0.00 49 1014.6
20260508173523 17 148 0.0 1.6 0.00 0.00 0.00 48 1014.6
20260508173023 17 143 0.0 1.6 0.00 0.00 0.00 46 1014.5
20260508172522 17 257 0.0 1.6 0.00 0.00 0.00 48 1014.7
20260508172028 17 297 0.0 1.6 0.00 0.00 0.00 49 1014.7
20260508171522 17 323 0.0 0.0 0.00 0.00 0.00 48 1014.7
20260508171023 17 266 0.0 0.0 0.00 0.00 0.00 48 1014.8
20260508170522 17 287 0.0 0.0 0.00 0.00 0.00 54 1014.9
20260508170023 17 307 0.0 1.6 0.00 0.00 0.00 49 1015.0
20260508165521 17 307 0.0 1.6 0.00 0.00 0.00 50 1015.1
20260508165026 17 269 0.0 1.6 0.00 0.00 0.00 47 1015.2
20260508164534 17 270 0.0 1.6 0.00 0.00 0.00 49 1015.3
20260508164021 17 266 0.0 1.6 0.00 0.00 0.00 48 1015.4
20260508163519 17 249 0.0 0.0 0.00 0.00 0.00 52 1015.5
20260508163019 17 252 0.0 0.0 0.00 0.00 0.00 48 1015.5
20260508162518 17 283 0.0 0.0 0.00 0.00 0.00 48 1015.5
20260508162020 17 229 0.0 0.0 0.00 0.00 0.00 58 1015.6
20260508161516 16 230 0.0 0.0 0.00 0.00 0.00 54 1015.7
20260508161017 16 230 0.0 1.6 0.00 0.00 0.00 56 1015.7
20260508160515 17 146 0.0 1.6 0.00 0.00 0.00 55 1015.8
20260508160028 16 85 0.0 1.6 0.00 0.00 0.00 60 1015.9
20260508155513 16 114 0.0 1.6 0.00 0.00 0.00 58 1016.0
20260508155012 16 251 0.0 1.6 0.00 0.00 0.00 59 1016.0
20260508154512 16 251 0.0 3.2 0.00 0.00 0.00 56 1016.2
20260508154013 15 250 0.0 3.2 0.00 0.00 0.00 59 1016.3
20260508153508 15 252 0.0 0.0 0.00 0.00 0.00 67 1016.3
20260508153008 15 252 0.0 1.6 0.00 0.00 0.00 64 1016.3
20260508152506 15 252 0.0 1.6 0.00 0.00 0.00 64 1016.4
20260508152004 15 258 0.0 0.0 0.00 0.00 0.00 72 1016.3
20260508151503 14 258 0.0 1.6 0.00 0.00 0.00 68 1016.4
20260508151003 13 259 0.0 1.6 0.00 0.00 0.00 72 1016.4
20260508150500 13 259 0.0 0.0 0.00 0.00 0.00 72 1016.4
20260508150100 13 259 0.0 0.0 0.00 0.00 0.00 70 1016.3
20260508145559 12 259 0.0 0.0 0.00 0.00 0.00 71 1016.3
20260508145057 12 129 0.0 0.0 0.00 0.00 0.00 69 1016.4
20260508144600 12 215 0.0 0.0 0.00 0.00 0.00 70 1016.5
20260508144056 12 215 0.0 0.0 0.00 0.00 0.00 73 1016.6
20260508143554 12 214 0.0 0.0 0.00 0.00 0.00 75 1016.6
20260508143057 12 214 0.0 0.0 0.00 0.00 0.00 78 1016.7
20260508142551 11 214 0.0 0.0 0.00 0.00 0.00 79 1016.7
20260508142050 11 214 0.0 0.0 0.00 0.00 0.00 80 1016.7
20260508141559 10 130 0.0 0.0 0.00 0.00 0.00 85 1016.8
20260508141050 10 130 0.0 0.0 0.00 0.00 0.00 86 1016.8
20260508140553 10 141 0.0 0.0 0.00 0.00 0.00 89 1016.8
20260508140055 10 141 0.0 0.0 0.00 0.00 0.00 88 1016.7
20260508135550 10 141 0.0 1.6 0.00 0.00 0.00 87 1016.7
20260508135049 9 141 0.0 1.6 0.00 0.00 0.00 86 1016.8
20260508134548 9 166 0.0 0.0 0.00 0.00 0.00 88 1016.8
20260508134048 8 137 0.0 0.0 0.00 0.00 0.00 90 1016.8
20260508133551 8 136 0.0 0.0 0.00 0.00 0.00 89 1016.8
20260508133051 8 219 0.0 0.0 0.00 0.00 0.00 90 1016.8
20260508132546 8 219 0.0 0.0 0.00 0.00 0.00 91 1016.9
20260508132047 8 219 0.0 0.0 0.00 0.00 0.00 92 1016.9
20260508131550 8 219 0.0 0.0 0.00 0.00 0.00 93 1016.9
20260508131046 8 220 0.0 0.0 0.00 0.00 0.00 93 1016.8
20260508130549 7 122 0.0 0.0 0.00 0.00 0.00 93 1016.7
20260508130046 7 196 0.0 0.0 0.00 0.00 0.00 93 1016.8
20260508125544 7 110 0.0 0.0 0.00 0.00 0.00 94 1016.7
20260508125043 7 110 0.0 0.0 0.00 0.00 0.00 95 1016.6
20260508124544 7 110 0.0 0.0 0.00 0.00 0.00 95 1016.6
20260508124043 7 110 0.0 0.0 0.00 0.00 0.00 95 1016.6
20260508123543 7 110 0.0 0.0 0.00 0.00 0.00 95 1016.6
20260508123042 7 110 0.0 0.0 0.00 0.00 0.00 96 1016.6
20260508122541 7 110 0.0 0.0 0.00 0.00 0.00 96 1016.6
20260508122041 7 110 0.0 0.0 0.00 0.00 0.00 96 1016.5
20260508121543 6 110 0.0 0.0 0.00 0.00 0.00 96 1016.4
20260508121041 6 110 0.0 0.0 0.00 0.00 0.00 97 1016.4
20260508120540 6 110 0.0 0.0 0.00 0.00 0.00 97 1016.3
20260508120047 6 110 0.0 0.0 0.00 0.00 0.00 97 1016.3
20260508115540 6 110 0.0 0.0 0.00 0.41 0.00 97 1016.2
20260508115038 6 110 0.0 0.0 0.00 0.41 0.00 97 1016.2
20260508114537 6 110 0.0 0.0 0.00 0.41 0.00 97 1016.0
20260508114036 6 110 0.0 0.0 0.00 0.41 0.00 97 1015.8
20260508113535 6 110 0.0 0.0 0.00 0.41 0.00 97 1015.8
20260508113035 6 110 0.0 0.0 0.00 0.41 0.00 97 1015.6
20260508112533 6 110 0.0 0.0 0.00 0.41 0.00 97 1015.7
20260508112033 6 110 0.0 0.0 0.00 0.41 0.00 97 1015.5
20260508111549 6 110 0.0 0.0 0.00 0.41 0.00 96 1015.4
20260508111034 6 110 0.0 0.0 0.00 0.41 0.00 96 1015.3
20260508110535 6 110 0.0 0.0 0.00 0.41 0.00 96 1015.2
20260508110030 6 110 0.0 0.0 0.00 0.41 0.00 96 1015.0
20260508105530 6 110 0.0 0.0 0.00 0.56 0.00 96 1014.9
20260508105030 6 110 0.0 0.0 0.00 0.56 0.00 96 1014.9
20260508104530 6 110 0.0 0.0 0.00 0.56 0.00 96 1015.0
20260508104030 6 110 0.0 0.0 0.00 0.56 0.00 96 1014.9
20260508103528 6 110 0.0 0.0 0.00 0.56 0.00 96 1014.7
20260508103032 6 110 0.0 0.0 0.00 0.56 0.00 96 1014.7
20260508102526 5 110 0.0 0.0 0.00 0.56 0.00 96 1014.5
20260508102026 5 110 0.0 0.0 0.00 0.56 0.00 96 1014.4
20260508101537 6 110 0.0 0.0 0.00 0.56 0.00 96 1014.4
20260508101025 6 110 0.0 0.0 0.00 0.56 0.00 96 1014.2
20260508100523 6 110 0.0 0.0 0.00 0.56 0.00 96 1014.1
20260508100027 6 110 0.0 0.0 0.00 0.56 0.00 96 1014.0
20260508095522 6 110 0.0 0.0 0.00 0.56 0.00 95 1013.9
20260508095022 6 110 0.0 0.0 0.00 0.56 0.00 95 1013.9
20260508094521 6 110 0.0 0.0 0.00 0.56 0.00 95 1013.9
20260508094021 6 110 0.0 0.0 0.00 0.56 0.00 95 1013.8
20260508093521 6 110 0.0 0.0 0.00 0.56 0.00 95 1013.9
20260508093020 6 110 0.0 0.0 0.00 0.56 0.00 95 1013.9
20260508092520 6 110 0.0 0.0 0.00 0.56 0.00 95 1013.8
20260508092019 6 110 0.0 0.0 0.00 0.56 0.00 95 1013.9
20260508091518 6 110 0.0 0.0 0.00 0.56 0.00 95 1013.7
20260508091019 6 110 0.0 0.0 0.00 0.56 0.00 95 1013.6
20260508090518 6 110 0.0 0.0 0.00 0.56 0.00 95 1013.7
20260508090018 6 110 0.0 0.0 0.00 0.56 0.00 95 1013.8
20260508085516 6 110 0.0 0.0 0.00 0.56 0.00 94 1013.7
20260508085016 6 110 0.0 0.0 0.00 0.56 0.00 94 1013.5
20260508084515 6 110 0.0 0.0 0.00 0.56 0.00 94 1013.5
20260508084018 6 110 0.0 0.0 0.00 0.56 0.00 94 1013.4
20260508083515 6 110 0.0 0.0 0.00 0.56 0.00 94 1013.4
20260508083013 6 110 0.0 0.0 0.00 0.56 0.00 94 1013.3
20260508082514 6 110 0.0 0.0 0.00 0.56 0.00 94 1013.2
20260508082013 6 110 0.0 0.0 0.00 0.56 0.00 94 1013.4
20260508081512 6 110 0.0 0.0 0.00 0.56 0.00 94 1013.4
20260508081014 6 110 0.0 0.0 0.00 0.56 0.00 94 1013.1
20260508080510 7 110 0.0 0.0 0.00 0.56 0.00 93 1013.0
20260508080010 7 110 0.0 0.0 0.00 0.56 0.00 93 1012.9
20260508075512 7 110 0.0 0.0 0.00 0.56 0.00 93 1013.0
20260508075009 7 110 0.0 0.0 0.00 0.56 0.00 93 1012.9
20260508074508 7 110 0.0 0.0 0.00 0.56 0.00 93 1012.9
20260508074008 7 110 0.0 0.0 0.00 0.56 0.00 93 1013.0
20260508073508 7 110 0.0 0.0 0.00 0.56 0.00 93 1012.9
20260508073007 7 110 0.0 0.0 0.00 0.56 0.00 92 1012.8
20260508072509 7 110 0.0 0.0 0.00 0.56 0.00 92 1012.6
20260508072005 7 110 0.0 0.0 0.00 0.56 0.00 92 1012.6
20260508071505 7 110 0.0 0.0 0.00 0.56 0.00 91 1012.7
20260508071003 7 110 0.0 0.0 0.00 0.56 0.00 91 1012.6
20260508070505 7 110 0.0 0.0 0.00 0.56 0.00 91 1012.6
20260508070002 7 110 0.0 0.0 0.00 0.56 0.00 90 1012.6
20260508065502 7 110 0.0 0.0 0.00 0.56 0.00 90 1012.6
20260508065001 7 110 0.0 0.0 0.00 0.56 0.00 90 1012.6
20260508064615 7 110 0.0 0.0 0.00 0.56 0.00 89 1012.6
20260508064059 8 110 0.0 0.0 0.00 0.56 0.00 89 1012.4
20260508064001 8 110 0.0 0.0 0.00 0.56 0.00 89 1012.5
20260508063558 8 110 0.0 0.0 0.00 0.56 0.00 89 1012.5
20260508063058 8 110 0.0 0.0 0.00 0.56 0.00 89 1012.5
20260508062555 8 110 0.0 0.0 0.00 0.56 0.00 88 1012.6
20260508062056 8 110 0.0 0.0 0.00 0.56 0.00 88 1012.5
20260508061557 8 110 0.0 0.0 0.00 0.56 0.00 88 1012.4
20260508061054 8 110 0.0 0.0 0.00 0.56 0.00 87 1012.4
20260508060552 9 110 0.0 0.0 0.00 0.56 0.00 86 1012.3
20260508060052 9 110 0.0 0.0 0.00 0.56 0.00 86 1012.3
20260508055551 9 110 0.0 0.0 0.00 0.81 0.00 85 1012.4
20260508055050 10 110 0.0 0.0 0.00 0.81 0.00 85 1012.4
20260508054555 10 110 0.0 0.0 0.00 0.81 0.00 86 1012.5
20260508054047 10 110 0.0 0.0 0.00 0.81 0.00 84 1012.3
20260508053546 10 109 0.0 0.0 0.00 0.81 0.00 82 1012.4
20260508053045 10 93 0.0 0.0 0.00 0.81 0.00 80 1012.4
20260508052545 11 93 0.0 0.0 0.00 0.81 0.00 79 1012.5
20260508052044 11 89 0.0 0.0 0.00 0.81 0.00 78 1012.4
20260508051552 10 89 0.0 1.6 0.00 0.81 0.00 77 1012.3
20260508051045 10 120 0.0 1.6 0.00 0.81 0.00 80 1012.3
20260508050545 10 180 0.0 0.0 0.00 0.81 0.00 79 1012.4
20260508050045 11 145 0.0 0.0 0.00 0.81 0.00 80 1012.6
20260508045543 11 145 0.0 0.0 0.00 0.91 0.00 80 1012.4
20260508045044 11 145 0.0 0.0 0.00 0.91 0.00 81 1012.3
20260508044543 11 145 0.0 0.0 0.00 0.91 0.00 80 1012.4
20260508044043 11 133 0.0 0.0 0.00 0.91 0.00 80 1012.3
20260508043541 11 131 0.0 0.0 0.00 0.91 0.00 79 1012.2
20260508043042 11 162 0.0 0.0 0.00 0.91 0.00 82 1012.1
20260508042541 11 136 0.0 1.6 0.00 0.91 0.00 79 1012.1
20260508042039 11 111 0.0 1.6 0.00 0.91 0.00 80 1012.2
20260508041539 11 94 0.0 1.6 0.00 0.91 0.00 81 1012.1
20260508041042 11 128 0.0 1.6 0.00 0.91 0.00 81 1012.2
20260508040539 11 140 0.0 0.0 0.00 0.91 0.00 80 1012.2
20260508040040 11 110 0.0 1.6 0.00 0.91 0.00 81 1012.2
20260508035537 10 110 0.0 1.6 0.00 0.91 0.91 82 1012.0
20260508035039 10 134 0.0 3.2 0.00 0.91 0.91 82 1012.3
20260508034537 10 134 0.0 3.2 0.00 0.91 0.91 84 1012.2
20260508034036 10 139 0.0 1.6 0.00 0.91 0.91 86 1012.3
20260508033535 10 87 0.0 0.0 0.00 0.91 0.91 86 1012.3
20260508033036 10 115 0.0 0.0 0.00 0.91 0.91 87 1012.3
20260508032536 9 110 0.0 1.6 0.00 0.91 0.91 88 1012.4
20260508032039 8 110 0.0 1.6 0.00 0.91 0.91 90 1012.5
20260508031635 8 131 0.0 0.0 0.00 0.91 0.91 91 1012.6
20260508031035 8 131 0.0 0.0 0.00 0.91 0.91 92 1012.5
20260508030535 8 131 0.0 0.0 0.00 0.91 0.91 92 1012.6
20260508030035 8 131 0.0 0.0 0.00 0.91 0.91 92 1012.7
20260508025537 8 131 0.0 0.0 0.00 0.99 0.91 92 1012.8
20260508025033 8 131 0.0 0.0 0.00 0.99 0.91 92 1012.7
20260508024543 8 131 0.0 0.0 0.00 0.99 0.91 92 1012.5
20260508024032 8 131 0.0 0.0 0.00 0.99 0.91 91 1012.5
20260508023531 8 131 0.0 0.0 0.00 0.99 0.91 91 1012.4
20260508023030 8 131 0.0 0.0 0.00 0.99 0.91 91 1012.3
20260508022529 8 131 0.0 0.0 0.00 0.99 0.91 90 1012.2
20260508022028 9 131 0.0 0.0 0.00 0.99 0.91 90 1012.1
20260508021526 9 131 0.0 0.0 0.00 0.99 0.91 90 1012.0
20260508021026 9 131 0.0 1.6 0.00 0.99 0.91 89 1012.0
20260508020525 9 131 0.0 1.6 0.00 0.99 0.91 88 1011.9
20260508020026 9 131 0.0 0.0 0.00 0.99 0.91 88 1011.9
20260508015525 9 131 0.0 0.0 0.00 1.04 0.91 89 1011.8
20260508015025 9 131 0.0 1.6 0.00 1.04 0.91 88 1011.9
20260508014541 9 131 0.0 1.6 0.00 1.04 0.91 88 1011.7
20260508014023 9 124 0.0 0.0 0.00 1.04 0.91 88 1011.7
20260508013522 9 124 0.0 0.0 0.00 1.04 0.91 88 1011.4
20260508013022 10 124 0.0 0.0 0.00 1.04 0.91 87 1011.5
20260508012522 10 124 0.0 0.0 0.00 1.04 0.91 87 1011.4
20260508012020 10 124 0.0 0.0 0.00 1.04 0.91 85 1011.4
20260508011521 10 124 0.0 0.0 0.00 1.04 0.91 86 1011.3
20260508011018 10 124 0.0 0.0 0.00 1.04 0.91 85 1011.2
20260508010518 10 124 0.0 0.0 0.00 1.04 0.91 85 1011.2
20260508010026 10 124 0.0 0.0 0.00 1.04 0.91 85 1011.1
20260508005522 10 123 0.0 0.0 0.00 1.19 0.91 84 1010.9
20260508005020 10 123 0.0 0.0 0.00 1.19 0.91 83 1010.8
20260508004522 10 122 0.0 1.6 0.00 1.19 0.91 83 1010.9
20260508004015 10 122 0.0 1.6 0.00 1.19 0.91 83 1010.9
20260508003513 11 123 0.0 0.0 0.00 1.19 0.91 82 1010.8
20260508003034 11 123 0.0 0.0 0.00 1.19 0.91 80 1010.7
20260508002513 11 123 0.0 0.0 0.00 1.19 0.91 80 1010.7
20260508002017 11 124 0.0 0.0 0.00 1.19 0.91 79 1010.4
20260508001510 11 262 0.0 1.6 0.00 1.19 0.91 77 1010.4
20260508001010 12 262 0.0 1.6 0.00 1.19 0.91 77 1010.3